Year,Month,Day,Hour,Minute,Value (Times are PST for temperature in C)
2014,06,18,00,00,11.10
2014,06,18,00,01,11.10
2014,06,18,00,02,11.10
2014,06,18,00,03,11.00
2014,06,18,00,04,11.00
2014,06,18,00,05,11.00
2014,06,18,00,06,11.00
2014,06,18,00,07,11.00
2014,06,18,00,08,10.90
2014,06,18,00,09,10.90
2014,06,18,00,10,10.90
2014,06,18,00,11,10.90
2014,06,18,00,12,10.90
2014,06,18,00,13,10.90
2014,06,18,00,14,10.90
2014,06,18,00,15,10.90
2014,06,18,00,16,10.80
2014,06,18,00,17,10.80
2014,06,18,00,18,10.80
2014,06,18,00,19,10.80
2014,06,18,00,20,10.80
2014,06,18,00,21,10.80
2014,06,18,00,22,10.80
2014,06,18,00,23,10.80
2014,06,18,00,24,10.80
2014,06,18,00,25,10.80
2014,06,18,00,26,10.80
2014,06,18,00,27,10.80
2014,06,18,00,28,10.80
2014,06,18,00,29,10.90
2014,06,18,00,30,10.90
2014,06,18,00,31,10.90
2014,06,18,00,32,10.90
2014,06,18,00,33,10.90
2014,06,18,00,34,10.90
2014,06,18,00,35,10.90
2014,06,18,00,36,10.90
2014,06,18,00,37,10.80
2014,06,18,00,38,10.80
2014,06,18,00,39,10.80
2014,06,18,00,40,10.80
2014,06,18,00,41,10.80
2014,06,18,00,42,10.80
2014,06,18,00,43,10.80
2014,06,18,00,44,10.80
2014,06,18,00,45,10.80
2014,06,18,00,46,10.80
2014,06,18,00,47,10.80
2014,06,18,00,48,10.70
2014,06,18,00,49,10.70
2014,06,18,00,50,10.70
2014,06,18,00,51,10.70
2014,06,18,00,52,10.70
2014,06,18,00,53,10.70
2014,06,18,00,54,10.70
2014,06,18,00,55,10.70
2014,06,18,00,56,10.70
2014,06,18,00,57,10.70
2014,06,18,00,58,10.70
2014,06,18,00,59,10.70
2014,06,18,01,00,10.70
2014,06,18,01,01,10.70
2014,06,18,01,02,10.70
2014,06,18,01,03,10.70
2014,06,18,01,04,10.70
2014,06,18,01,05,10.60
2014,06,18,01,06,10.60
2014,06,18,01,07,10.60
2014,06,18,01,08,10.60
2014,06,18,01,09,10.60
2014,06,18,01,10,10.60
2014,06,18,01,11,10.60
2014,06,18,01,12,10.60
2014,06,18,01,13,10.60
2014,06,18,01,14,10.50
2014,06,18,01,15,10.50
2014,06,18,01,16,10.50
2014,06,18,01,17,10.50
2014,06,18,01,18,10.50
2014,06,18,01,19,10.40
2014,06,18,01,20,10.40
2014,06,18,01,21,10.40
2014,06,18,01,22,10.40
2014,06,18,01,23,10.40
2014,06,18,01,24,10.40
2014,06,18,01,25,10.40
2014,06,18,01,26,10.40
2014,06,18,01,27,10.40
2014,06,18,01,28,10.40
2014,06,18,01,29,10.40
2014,06,18,01,30,10.40
2014,06,18,01,31,10.30
2014,06,18,01,32,10.30
2014,06,18,01,33,10.30
2014,06,18,01,34,10.30
2014,06,18,01,35,10.30
2014,06,18,01,36,10.30
2014,06,18,01,37,10.30
2014,06,18,01,38,10.30
2014,06,18,01,39,10.30
2014,06,18,01,40,10.30
2014,06,18,01,41,10.30
2014,06,18,01,42,10.30
2014,06,18,01,43,10.30
2014,06,18,01,44,10.30
2014,06,18,01,45,10.30
2014,06,18,01,46,10.30
2014,06,18,01,47,10.30
2014,06,18,01,48,10.20
2014,06,18,01,49,10.20
2014,06,18,01,50,10.20
2014,06,18,01,51,10.20
2014,06,18,01,52,10.20
2014,06,18,01,53,10.20
2014,06,18,01,54,10.20
2014,06,18,01,55,10.20
2014,06,18,01,56,10.20
2014,06,18,01,57,10.20
2014,06,18,01,58,10.20
2014,06,18,01,59,10.20
2014,06,18,02,00,10.10
2014,06,18,02,01,10.10
2014,06,18,02,02,10.10
2014,06,18,02,03,10.10
2014,06,18,02,04,10.10
2014,06,18,02,05,10.10
2014,06,18,02,06,10.10
2014,06,18,02,07,10.10
2014,06,18,02,08,10.10
2014,06,18,02,09,10.10
2014,06,18,02,10,10.00
2014,06,18,02,11,10.00
2014,06,18,02,12,10.00
2014,06,18,02,13,10.00
2014,06,18,02,14,10.00
2014,06,18,02,15,9.90
2014,06,18,02,16,9.90
2014,06,18,02,17,9.90
2014,06,18,02,18,9.90
2014,06,18,02,19,9.90
2014,06,18,02,20,9.90
2014,06,18,02,21,9.90
2014,06,18,02,22,9.90
2014,06,18,02,23,9.90
2014,06,18,02,24,9.90
2014,06,18,02,25,9.90
2014,06,18,02,26,9.90
2014,06,18,02,27,9.90
2014,06,18,02,28,9.90
2014,06,18,02,29,9.90
2014,06,18,02,30,9.90
2014,06,18,02,31,9.90
2014,06,18,02,32,9.80
2014,06,18,02,33,9.80
2014,06,18,02,34,9.80
2014,06,18,02,35,9.80
2014,06,18,02,36,9.80
2014,06,18,02,37,9.80
2014,06,18,02,38,9.80
2014,06,18,02,39,9.80
2014,06,18,02,40,9.80
2014,06,18,02,41,9.80
2014,06,18,02,42,9.70
2014,06,18,02,43,9.70
2014,06,18,02,44,9.70
2014,06,18,02,45,9.70
2014,06,18,02,46,9.70
2014,06,18,02,47,9.70
2014,06,18,02,48,9.70
2014,06,18,02,49,9.70
2014,06,18,02,50,9.70
2014,06,18,02,51,9.70
2014,06,18,02,52,9.70
2014,06,18,02,53,9.70
2014,06,18,02,54,9.70
2014,06,18,02,55,9.70
2014,06,18,02,56,9.70
2014,06,18,02,57,9.70
2014,06,18,02,58,9.70
2014,06,18,02,59,9.70
2014,06,18,03,00,9.70
2014,06,18,03,01,9.70
2014,06,18,03,02,9.70
2014,06,18,03,03,9.70
2014,06,18,03,04,9.70
2014,06,18,03,05,9.70
2014,06,18,03,06,9.70
2014,06,18,03,07,9.70
2014,06,18,03,08,9.70
2014,06,18,03,09,9.70
2014,06,18,03,10,9.70
2014,06,18,03,11,9.70
2014,06,18,03,12,9.70
2014,06,18,03,13,9.70
2014,06,18,03,14,9.70
2014,06,18,03,15,9.70
2014,06,18,03,16,9.70
2014,06,18,03,17,9.70
2014,06,18,03,18,9.70
2014,06,18,03,19,9.70
2014,06,18,03,20,9.70
2014,06,18,03,21,9.70
2014,06,18,03,22,9.70
2014,06,18,03,23,9.70
2014,06,18,03,24,9.70
2014,06,18,03,25,9.70
2014,06,18,03,26,9.70
2014,06,18,03,27,9.70
2014,06,18,03,28,9.70
2014,06,18,03,29,9.70
2014,06,18,03,30,9.70
2014,06,18,03,31,9.70
2014,06,18,03,32,9.70
2014,06,18,03,33,9.70
2014,06,18,03,34,9.70
2014,06,18,03,35,9.70
2014,06,18,03,36,9.70
2014,06,18,03,37,9.60
2014,06,18,03,38,9.60
2014,06,18,03,39,9.60
2014,06,18,03,40,9.60
2014,06,18,03,41,9.60
2014,06,18,03,42,9.60
2014,06,18,03,43,9.60
2014,06,18,03,44,9.60
2014,06,18,03,45,9.60
2014,06,18,03,46,9.70
2014,06,18,03,47,9.70
2014,06,18,03,48,9.70
2014,06,18,03,49,9.70
2014,06,18,03,50,9.70
2014,06,18,03,51,9.70
2014,06,18,03,52,9.70
2014,06,18,03,53,9.70
2014,06,18,03,54,9.70
2014,06,18,03,55,9.70
2014,06,18,03,56,9.70
2014,06,18,03,57,9.70
2014,06,18,03,58,9.70
2014,06,18,03,59,9.70
2014,06,18,04,00,9.70
2014,06,18,04,01,9.70
2014,06,18,04,02,9.70
2014,06,18,04,03,9.70
2014,06,18,04,04,9.70
2014,06,18,04,05,9.70
2014,06,18,04,06,9.70
2014,06,18,04,07,9.80
2014,06,18,04,08,9.80
2014,06,18,04,09,9.80
2014,06,18,04,10,9.80
2014,06,18,04,11,9.80
2014,06,18,04,12,9.80
2014,06,18,04,13,9.80
2014,06,18,04,14,9.80
2014,06,18,04,15,9.80
2014,06,18,04,16,9.80
2014,06,18,04,17,9.80
2014,06,18,04,18,9.80
2014,06,18,04,19,9.80
2014,06,18,04,20,9.80
2014,06,18,04,21,9.80
2014,06,18,04,22,9.80
2014,06,18,04,23,9.80
2014,06,18,04,24,9.80
2014,06,18,04,25,9.80
2014,06,18,04,26,9.80
2014,06,18,04,27,9.80
2014,06,18,04,28,9.80
2014,06,18,04,29,9.80
2014,06,18,04,30,9.80
2014,06,18,04,31,9.90
2014,06,18,04,32,9.90
2014,06,18,04,33,9.90
2014,06,18,04,34,9.90
2014,06,18,04,35,9.90
2014,06,18,04,36,9.90
2014,06,18,04,37,9.90
2014,06,18,04,38,9.90
2014,06,18,04,39,9.90
2014,06,18,04,40,9.90
2014,06,18,04,41,9.90
2014,06,18,04,42,9.90
2014,06,18,04,43,9.90
2014,06,18,04,44,9.90
2014,06,18,04,45,9.90
2014,06,18,04,46,9.90
2014,06,18,04,47,9.90
2014,06,18,04,48,9.90
2014,06,18,04,49,9.90
2014,06,18,04,50,9.90
2014,06,18,04,51,9.90
2014,06,18,04,52,9.90
2014,06,18,04,53,9.90
2014,06,18,04,54,9.90
2014,06,18,04,55,9.90
2014,06,18,04,56,9.90
2014,06,18,04,57,9.90
2014,06,18,04,58,9.90
2014,06,18,04,59,9.90
2014,06,18,05,00,9.90
2014,06,18,05,01,9.90
2014,06,18,05,02,9.90
2014,06,18,05,03,9.90
2014,06,18,05,04,9.90
2014,06,18,05,05,9.90
2014,06,18,05,06,9.90
2014,06,18,05,07,9.90
2014,06,18,05,08,9.90
2014,06,18,05,09,9.90
2014,06,18,05,10,9.90
2014,06,18,05,11,9.90
2014,06,18,05,12,9.90
2014,06,18,05,13,9.90
2014,06,18,05,14,9.90
2014,06,18,05,15,9.90
2014,06,18,05,16,9.90
2014,06,18,05,17,9.90
2014,06,18,05,18,9.90
2014,06,18,05,19,9.90
2014,06,18,05,20,9.90
2014,06,18,05,21,10.00
2014,06,18,05,22,10.00
2014,06,18,05,23,10.00
2014,06,18,05,24,10.00
2014,06,18,05,25,10.00
2014,06,18,05,26,10.00
2014,06,18,05,27,10.00
2014,06,18,05,28,10.00
2014,06,18,05,29,10.00
2014,06,18,05,30,10.00
2014,06,18,05,31,10.00
2014,06,18,05,32,10.00
2014,06,18,05,33,10.00
2014,06,18,05,34,10.00
2014,06,18,05,35,10.00
2014,06,18,05,36,10.00
2014,06,18,05,37,10.00
2014,06,18,05,38,10.00
2014,06,18,05,39,10.00
2014,06,18,05,40,10.00
2014,06,18,05,41,10.00
2014,06,18,05,42,10.00
2014,06,18,05,43,10.00
2014,06,18,05,44,10.00
2014,06,18,05,45,10.00
2014,06,18,05,46,10.00
2014,06,18,05,47,10.00
2014,06,18,05,48,10.00
2014,06,18,05,49,10.00
2014,06,18,05,50,10.00
2014,06,18,05,51,10.00
2014,06,18,05,52,10.00
2014,06,18,05,53,10.00
2014,06,18,05,54,10.00
2014,06,18,05,55,10.00
2014,06,18,05,56,10.10
2014,06,18,05,57,10.10
2014,06,18,05,58,10.10
2014,06,18,05,59,10.10
2014,06,18,06,00,10.10
2014,06,18,06,01,10.10
2014,06,18,06,02,10.10
2014,06,18,06,03,10.10
2014,06,18,06,04,10.10
2014,06,18,06,05,10.10
2014,06,18,06,06,10.10
2014,06,18,06,07,10.10
2014,06,18,06,08,10.10
2014,06,18,06,09,10.20
2014,06,18,06,10,10.20
2014,06,18,06,11,10.20
2014,06,18,06,12,10.20
2014,06,18,06,13,10.20
2014,06,18,06,14,10.20
2014,06,18,06,15,10.20
2014,06,18,06,16,10.20
2014,06,18,06,17,10.20
2014,06,18,06,18,10.20
2014,06,18,06,19,10.20
2014,06,18,06,20,10.20
2014,06,18,06,21,10.20
2014,06,18,06,22,10.30
2014,06,18,06,23,10.30
2014,06,18,06,24,10.30
2014,06,18,06,25,10.30
2014,06,18,06,26,10.30
2014,06,18,06,27,10.30
2014,06,18,06,28,10.30
2014,06,18,06,29,10.30
2014,06,18,06,30,10.30
2014,06,18,06,31,10.30
2014,06,18,06,32,10.30
2014,06,18,06,33,10.40
2014,06,18,06,34,10.40
2014,06,18,06,35,10.40
2014,06,18,06,36,10.40
2014,06,18,06,37,10.40
2014,06,18,06,38,10.50
2014,06,18,06,39,10.50
2014,06,18,06,40,10.50
2014,06,18,06,41,10.60
2014,06,18,06,42,10.60
2014,06,18,06,43,10.60
2014,06,18,06,44,10.60
2014,06,18,06,45,10.60
2014,06,18,06,46,10.60
2014,06,18,06,47,10.70
2014,06,18,06,48,10.70
2014,06,18,06,49,10.70
2014,06,18,06,50,10.70
2014,06,18,06,51,10.70
2014,06,18,06,52,10.80
2014,06,18,06,53,10.80
2014,06,18,06,54,10.80
2014,06,18,06,55,10.80
2014,06,18,06,56,10.90
2014,06,18,06,57,10.90
2014,06,18,06,58,10.90
2014,06,18,06,59,10.90
2014,06,18,07,00,10.90
2014,06,18,07,01,11.00
2014,06,18,07,02,11.00
2014,06,18,07,03,11.10
2014,06,18,07,04,11.10
2014,06,18,07,05,11.10
2014,06,18,07,06,11.10
2014,06,18,07,07,11.10
2014,06,18,07,08,11.10
2014,06,18,07,09,11.20
2014,06,18,07,10,11.20
2014,06,18,07,11,11.20
2014,06,18,07,12,11.20
2014,06,18,07,13,11.20
2014,06,18,07,14,11.20
2014,06,18,07,15,11.20
2014,06,18,07,16,11.30
2014,06,18,07,17,11.30
2014,06,18,07,18,11.30
2014,06,18,07,19,11.40
2014,06,18,07,20,11.40
2014,06,18,07,21,11.40
2014,06,18,07,22,11.40
2014,06,18,07,23,11.50
2014,06,18,07,24,11.50
2014,06,18,07,25,11.60
2014,06,18,07,26,11.60
2014,06,18,07,27,11.60
2014,06,18,07,28,11.60
2014,06,18,07,29,11.60
2014,06,18,07,30,11.60
2014,06,18,07,31,11.60
2014,06,18,07,32,11.60
2014,06,18,07,33,11.70
2014,06,18,07,34,11.70
2014,06,18,07,35,11.70
2014,06,18,07,36,11.70
2014,06,18,07,37,11.70
2014,06,18,07,38,11.70
2014,06,18,07,39,11.70
2014,06,18,07,40,11.70
2014,06,18,07,41,11.80
2014,06,18,07,42,11.80
2014,06,18,07,43,11.80
2014,06,18,07,44,11.80
2014,06,18,07,45,11.80
2014,06,18,07,46,11.80
2014,06,18,07,47,11.90
2014,06,18,07,48,11.90
2014,06,18,07,49,11.90
2014,06,18,07,50,12.00
2014,06,18,07,51,12.00
2014,06,18,07,52,12.00
2014,06,18,07,53,12.10
2014,06,18,07,54,12.10
2014,06,18,07,55,12.10
2014,06,18,07,56,12.20
2014,06,18,07,57,12.20
2014,06,18,07,58,12.20
2014,06,18,07,59,12.20
2014,06,18,08,00,12.20
2014,06,18,08,01,12.30
2014,06,18,08,02,12.30
2014,06,18,08,03,12.30
2014,06,18,08,04,12.30
2014,06,18,08,05,12.40
2014,06,18,08,06,12.40
2014,06,18,08,07,12.50
2014,06,18,08,08,12.60
2014,06,18,08,09,12.60
2014,06,18,08,10,12.70
2014,06,18,08,11,12.70
2014,06,18,08,12,12.70
2014,06,18,08,13,12.80
2014,06,18,08,14,12.80
2014,06,18,08,15,12.90
2014,06,18,08,16,12.90
2014,06,18,08,17,12.90
2014,06,18,08,18,13.00
2014,06,18,08,19,13.00
2014,06,18,08,20,13.10
2014,06,18,08,21,13.10
2014,06,18,08,22,13.10
2014,06,18,08,23,13.20
2014,06,18,08,24,13.20
2014,06,18,08,25,13.20
2014,06,18,08,26,13.20
2014,06,18,08,27,13.20
2014,06,18,08,28,13.20
2014,06,18,08,29,13.20
2014,06,18,08,30,13.20
2014,06,18,08,31,13.20
2014,06,18,08,32,13.30
2014,06,18,08,33,13.30
2014,06,18,08,34,13.30
2014,06,18,08,35,13.40
2014,06,18,08,36,13.50
2014,06,18,08,37,13.60
2014,06,18,08,38,13.70
2014,06,18,08,39,13.70
2014,06,18,08,40,13.80
2014,06,18,08,41,13.80
2014,06,18,08,42,13.80
2014,06,18,08,43,13.80
2014,06,18,08,44,13.80
2014,06,18,08,45,13.80
2014,06,18,08,46,13.80
2014,06,18,08,47,13.90
2014,06,18,08,48,13.90
2014,06,18,08,49,13.80
2014,06,18,08,50,13.80
2014,06,18,08,51,13.80
2014,06,18,08,52,13.90
2014,06,18,08,53,13.90
2014,06,18,08,54,14.00
2014,06,18,08,55,14.00
2014,06,18,08,56,14.10
2014,06,18,08,57,14.10
2014,06,18,08,58,14.10
2014,06,18,08,59,14.10
2014,06,18,09,00,14.10
2014,06,18,09,01,14.10
2014,06,18,09,02,14.10
2014,06,18,09,03,14.10
2014,06,18,09,04,14.10
2014,06,18,09,05,14.10
2014,06,18,09,06,14.20
2014,06,18,09,07,14.20
2014,06,18,09,08,14.20
2014,06,18,09,09,14.20
2014,06,18,09,10,14.20
2014,06,18,09,11,14.20
2014,06,18,09,12,14.30
2014,06,18,09,13,14.30
2014,06,18,09,14,14.30
2014,06,18,09,15,14.40
2014,06,18,09,16,14.40
2014,06,18,09,17,14.40
2014,06,18,09,18,14.40
2014,06,18,09,19,14.50
2014,06,18,09,20,14.50
2014,06,18,09,21,14.60
2014,06,18,09,22,14.60
2014,06,18,09,23,14.70
2014,06,18,09,24,14.80
2014,06,18,09,25,14.80
2014,06,18,09,26,14.90
2014,06,18,09,27,14.90
2014,06,18,09,28,15.00
2014,06,18,09,29,15.00
2014,06,18,09,30,15.10
2014,06,18,09,31,15.10
2014,06,18,09,32,15.20
2014,06,18,09,33,15.20
2014,06,18,09,34,15.20
2014,06,18,09,35,15.30
2014,06,18,09,36,15.30
2014,06,18,09,37,15.30
2014,06,18,09,38,15.30
2014,06,18,09,39,15.40
2014,06,18,09,40,15.40
2014,06,18,09,41,15.50
2014,06,18,09,42,15.60
2014,06,18,09,43,15.60
2014,06,18,09,44,15.60
2014,06,18,09,45,15.70
2014,06,18,09,46,15.80
2014,06,18,09,47,15.90
2014,06,18,09,48,16.00
2014,06,18,09,49,16.10
2014,06,18,09,50,16.20
2014,06,18,09,51,16.20
2014,06,18,09,52,16.30
2014,06,18,09,53,16.30
2014,06,18,09,54,16.30
2014,06,18,09,55,16.30
2014,06,18,09,56,16.30
2014,06,18,09,57,16.40
2014,06,18,09,58,16.50
2014,06,18,09,59,16.60
2014,06,18,10,00,16.70
2014,06,18,10,01,16.80
2014,06,18,10,02,16.90
2014,06,18,10,03,16.90
2014,06,18,10,04,17.00
2014,06,18,10,05,17.00
2014,06,18,10,06,17.10
2014,06,18,10,07,17.10
2014,06,18,10,08,17.10
2014,06,18,10,09,17.10
2014,06,18,10,10,17.10
2014,06,18,10,11,17.10
2014,06,18,10,12,17.10
2014,06,18,10,13,17.10
2014,06,18,10,14,17.10
2014,06,18,10,15,17.10
2014,06,18,10,16,17.10
2014,06,18,10,17,17.10
2014,06,18,10,18,17.10
2014,06,18,10,19,17.10
2014,06,18,10,20,17.10
2014,06,18,10,21,17.10
2014,06,18,10,22,17.10
2014,06,18,10,23,17.00
2014,06,18,10,24,16.90
2014,06,18,10,25,16.90
2014,06,18,10,26,16.80
2014,06,18,10,27,16.80
2014,06,18,10,28,16.80
2014,06,18,10,29,16.80
2014,06,18,10,30,16.80
2014,06,18,10,31,16.80
2014,06,18,10,32,16.80
2014,06,18,10,33,16.80
2014,06,18,10,34,16.80
2014,06,18,10,35,16.80
2014,06,18,10,36,16.90
2014,06,18,10,37,17.00
2014,06,18,10,38,17.00
2014,06,18,10,39,17.10
2014,06,18,10,40,17.10
2014,06,18,10,41,17.10
2014,06,18,10,42,17.10
2014,06,18,10,43,17.10
2014,06,18,10,44,17.10
2014,06,18,10,45,17.10
2014,06,18,10,46,17.20
2014,06,18,10,47,17.20
2014,06,18,10,48,17.20
2014,06,18,10,49,17.20
2014,06,18,10,50,17.20
2014,06,18,10,51,17.20
2014,06,18,10,52,17.30
2014,06,18,10,53,17.20
2014,06,18,10,54,17.20
2014,06,18,10,55,17.20
2014,06,18,10,56,17.20
2014,06,18,10,57,17.20
2014,06,18,10,58,17.20
2014,06,18,10,59,17.20
2014,06,18,11,00,17.20
2014,06,18,11,01,17.20
2014,06,18,11,02,17.20
2014,06,18,11,03,17.20
2014,06,18,11,04,17.20
2014,06,18,11,05,17.30
2014,06,18,11,06,17.30
2014,06,18,11,07,17.40
2014,06,18,11,08,17.50
2014,06,18,11,09,17.50
2014,06,18,11,10,17.50
2014,06,18,11,11,17.50
2014,06,18,11,12,17.40
2014,06,18,11,13,17.50
2014,06,18,11,14,17.50
2014,06,18,11,15,17.50
2014,06,18,11,16,17.50
2014,06,18,11,17,17.60
2014,06,18,11,18,17.50
2014,06,18,11,19,17.60
2014,06,18,11,20,17.60
2014,06,18,11,21,17.70
2014,06,18,11,22,17.70
2014,06,18,11,23,17.80
2014,06,18,11,24,17.80
2014,06,18,11,25,17.90
2014,06,18,11,26,17.90
2014,06,18,11,27,17.90
2014,06,18,11,28,17.90
2014,06,18,11,29,18.00
2014,06,18,11,30,18.00
2014,06,18,11,31,18.10
2014,06,18,11,32,18.10
2014,06,18,11,33,18.20
2014,06,18,11,34,18.10
2014,06,18,11,35,18.00
2014,06,18,11,36,18.00
2014,06,18,11,37,17.90
2014,06,18,11,38,17.90
2014,06,18,11,39,18.00
2014,06,18,11,40,18.10
2014,06,18,11,41,18.10
2014,06,18,11,42,18.10
2014,06,18,11,43,18.20
2014,06,18,11,44,18.10
2014,06,18,11,45,18.00
2014,06,18,11,46,18.00
2014,06,18,11,47,17.90
2014,06,18,11,48,17.80
2014,06,18,11,49,17.80
2014,06,18,11,50,17.70
2014,06,18,11,51,17.60
2014,06,18,11,52,17.50
2014,06,18,11,53,17.50
2014,06,18,11,54,17.60
2014,06,18,11,55,17.70
2014,06,18,11,56,17.70
2014,06,18,11,57,17.80
2014,06,18,11,58,17.80
2014,06,18,11,59,17.80
2014,06,18,12,00,17.90
2014,06,18,12,01,18.00
2014,06,18,12,02,18.00
2014,06,18,12,03,18.10
2014,06,18,12,04,18.20
2014,06,18,12,05,18.20
2014,06,18,12,06,18.20
2014,06,18,12,07,18.30
2014,06,18,12,08,18.30
2014,06,18,12,09,18.40
2014,06,18,12,10,18.40
2014,06,18,12,11,18.50
2014,06,18,12,12,18.50
2014,06,18,12,13,18.50
2014,06,18,12,14,18.40
2014,06,18,12,15,18.40
2014,06,18,12,16,18.30
2014,06,18,12,17,18.20
2014,06,18,12,18,18.10
2014,06,18,12,19,18.10
2014,06,18,12,20,18.10
2014,06,18,12,21,18.20
2014,06,18,12,22,18.20
2014,06,18,12,23,18.20
2014,06,18,12,24,18.20
2014,06,18,12,25,18.20
2014,06,18,12,26,18.20
2014,06,18,12,27,18.20
2014,06,18,12,28,18.20
2014,06,18,12,29,18.20
2014,06,18,12,30,18.20
2014,06,18,12,31,18.10
2014,06,18,12,32,18.10
2014,06,18,12,33,18.10
2014,06,18,12,34,18.10
2014,06,18,12,35,18.10
2014,06,18,12,36,18.00
2014,06,18,12,37,18.00
2014,06,18,12,38,17.90
2014,06,18,12,39,18.00
2014,06,18,12,40,18.00
2014,06,18,12,41,18.00
2014,06,18,12,42,18.10
2014,06,18,12,43,18.20
2014,06,18,12,44,18.30
2014,06,18,12,45,18.50
2014,06,18,12,46,18.60
2014,06,18,12,47,18.60
2014,06,18,12,48,18.60
2014,06,18,12,49,18.60
2014,06,18,12,50,18.50
2014,06,18,12,51,18.50
2014,06,18,12,52,18.50
2014,06,18,12,53,18.50
2014,06,18,12,54,18.50
2014,06,18,12,55,18.50
2014,06,18,12,56,18.40
2014,06,18,12,57,18.40
2014,06,18,12,58,18.30
2014,06,18,12,59,18.30
2014,06,18,13,00,18.30
2014,06,18,13,01,18.30
2014,06,18,13,02,18.30
2014,06,18,13,03,18.30
2014,06,18,13,04,18.30
2014,06,18,13,05,18.30
2014,06,18,13,06,18.30
2014,06,18,13,07,18.20
2014,06,18,13,08,18.10
2014,06,18,13,09,18.00
2014,06,18,13,10,17.90
2014,06,18,13,11,17.90
2014,06,18,13,12,17.90
2014,06,18,13,13,18.00
2014,06,18,13,14,18.00
2014,06,18,13,15,18.10
2014,06,18,13,16,18.20
2014,06,18,13,17,18.30
2014,06,18,13,18,18.40
2014,06,18,13,19,18.40
2014,06,18,13,20,18.50
2014,06,18,13,21,18.60
2014,06,18,13,22,18.60
2014,06,18,13,23,18.70
2014,06,18,13,24,18.70
2014,06,18,13,25,18.70
2014,06,18,13,26,18.70
2014,06,18,13,27,18.70
2014,06,18,13,28,18.70
2014,06,18,13,29,18.60
2014,06,18,13,30,18.60
2014,06,18,13,31,18.50
2014,06,18,13,32,18.30
2014,06,18,13,33,18.20
2014,06,18,13,34,18.10
2014,06,18,13,35,18.00
2014,06,18,13,36,17.90
2014,06,18,13,37,17.80
2014,06,18,13,38,17.70
2014,06,18,13,39,17.70
2014,06,18,13,40,17.80
2014,06,18,13,41,17.80
2014,06,18,13,42,17.80
2014,06,18,13,43,17.80
2014,06,18,13,44,17.70
2014,06,18,13,45,17.60
2014,06,18,13,46,17.50
2014,06,18,13,47,17.50
2014,06,18,13,48,17.50
2014,06,18,13,49,17.50
2014,06,18,13,50,17.50
2014,06,18,13,51,17.50
2014,06,18,13,52,17.50
2014,06,18,13,53,17.40
2014,06,18,13,54,17.50
2014,06,18,13,55,17.50
2014,06,18,13,56,17.60
2014,06,18,13,57,17.70
2014,06,18,13,58,17.90
2014,06,18,13,59,18.00
2014,06,18,14,00,18.00
2014,06,18,14,01,18.00
2014,06,18,14,02,18.00
2014,06,18,14,03,18.00
2014,06,18,14,04,17.90
2014,06,18,14,05,17.80
2014,06,18,14,06,17.80
2014,06,18,14,07,17.80
2014,06,18,14,08,17.90
2014,06,18,14,09,17.90
2014,06,18,14,10,17.80
2014,06,18,14,11,17.90
2014,06,18,14,12,17.80
2014,06,18,14,13,17.70
2014,06,18,14,14,17.70
2014,06,18,14,15,17.70
2014,06,18,14,16,17.70
2014,06,18,14,17,17.60
2014,06,18,14,18,17.40
2014,06,18,14,19,17.40
2014,06,18,14,20,17.40
2014,06,18,14,21,17.40
2014,06,18,14,22,17.40
2014,06,18,14,23,17.30
2014,06,18,14,24,17.30
2014,06,18,14,25,17.30
2014,06,18,14,26,17.30
2014,06,18,14,27,17.30
2014,06,18,14,28,17.40
2014,06,18,14,29,17.40
2014,06,18,14,30,17.50
2014,06,18,14,31,17.60
2014,06,18,14,32,17.60
2014,06,18,14,33,17.70
2014,06,18,14,34,17.70
2014,06,18,14,35,17.70
2014,06,18,14,36,17.70
2014,06,18,14,37,17.70
2014,06,18,14,38,17.80
2014,06,18,14,39,17.80
2014,06,18,14,40,17.80
2014,06,18,14,41,17.80
2014,06,18,14,42,17.70
2014,06,18,14,43,17.70
2014,06,18,14,44,17.70
2014,06,18,14,45,17.70
2014,06,18,14,46,17.80
2014,06,18,14,47,17.90
2014,06,18,14,48,18.00
2014,06,18,14,49,18.10
2014,06,18,14,50,18.10
2014,06,18,14,51,18.20
2014,06,18,14,52,18.20
2014,06,18,14,53,18.20
2014,06,18,14,54,18.30
2014,06,18,14,55,18.20
2014,06,18,14,56,18.20
2014,06,18,14,57,18.20
2014,06,18,14,58,18.10
2014,06,18,14,59,18.00
2014,06,18,15,00,18.10
2014,06,18,15,01,18.10
2014,06,18,15,02,18.20
2014,06,18,15,03,18.20
2014,06,18,15,04,18.10
2014,06,18,15,05,18.00
2014,06,18,15,06,17.90
2014,06,18,15,07,17.90
2014,06,18,15,08,18.00
2014,06,18,15,09,18.10
2014,06,18,15,10,18.10
2014,06,18,15,11,18.00
2014,06,18,15,12,17.90
2014,06,18,15,13,17.80
2014,06,18,15,14,17.80
2014,06,18,15,15,17.80
2014,06,18,15,16,17.70
2014,06,18,15,17,17.70
2014,06,18,15,18,17.70
2014,06,18,15,19,17.70
2014,06,18,15,20,17.70
2014,06,18,15,21,17.80
2014,06,18,15,22,17.80
2014,06,18,15,23,17.80
2014,06,18,15,24,17.90
2014,06,18,15,25,17.90
2014,06,18,15,26,18.00
2014,06,18,15,27,18.00
2014,06,18,15,28,18.00
2014,06,18,15,29,18.00
2014,06,18,15,30,18.10
2014,06,18,15,31,18.00
2014,06,18,15,32,17.90
2014,06,18,15,33,17.90
2014,06,18,15,34,17.90
2014,06,18,15,35,17.90
2014,06,18,15,36,18.00
2014,06,18,15,37,18.00
2014,06,18,15,38,18.10
2014,06,18,15,39,18.10
2014,06,18,15,40,18.20
2014,06,18,15,41,18.30
2014,06,18,15,42,18.30
2014,06,18,15,43,18.40
2014,06,18,15,44,18.40
2014,06,18,15,45,18.40
2014,06,18,15,46,18.30
2014,06,18,15,47,18.30
2014,06,18,15,48,18.20
2014,06,18,15,49,18.20
2014,06,18,15,50,18.10
2014,06,18,15,51,18.10
2014,06,18,15,52,18.10
2014,06,18,15,53,18.10
2014,06,18,15,54,18.10
2014,06,18,15,55,18.10
2014,06,18,15,56,18.10
2014,06,18,15,57,18.20
2014,06,18,15,58,18.20
2014,06,18,15,59,18.20
2014,06,18,16,00,18.30
2014,06,18,16,01,18.30
2014,06,18,16,02,18.40
2014,06,18,16,03,18.30
2014,06,18,16,04,18.30
2014,06,18,16,05,18.30
2014,06,18,16,06,18.30
2014,06,18,16,07,18.30
2014,06,18,16,08,18.30
2014,06,18,16,09,18.30
2014,06,18,16,10,18.30
2014,06,18,16,11,18.40
2014,06,18,16,12,18.50
2014,06,18,16,13,18.60
2014,06,18,16,14,18.60
2014,06,18,16,15,18.60
2014,06,18,16,16,18.50
2014,06,18,16,17,18.40
2014,06,18,16,18,18.40
2014,06,18,16,19,18.30
2014,06,18,16,20,18.30
2014,06,18,16,21,18.30
2014,06,18,16,22,18.30
2014,06,18,16,23,18.20
2014,06,18,16,24,18.20
2014,06,18,16,25,18.20
2014,06,18,16,26,18.20
2014,06,18,16,27,18.20
2014,06,18,16,28,18.10
2014,06,18,16,29,18.00
2014,06,18,16,30,17.90
2014,06,18,16,31,17.90
2014,06,18,16,32,17.90
2014,06,18,16,33,17.90
2014,06,18,16,34,17.90
2014,06,18,16,35,17.80
2014,06,18,16,36,17.70
2014,06,18,16,37,17.60
2014,06,18,16,38,17.40
2014,06,18,16,39,17.30
2014,06,18,16,40,17.20
2014,06,18,16,41,17.10
2014,06,18,16,42,16.90
2014,06,18,16,43,16.90
2014,06,18,16,44,16.80
2014,06,18,16,45,16.80
2014,06,18,16,46,16.80
2014,06,18,16,47,16.80
2014,06,18,16,48,16.70
2014,06,18,16,49,16.70
2014,06,18,16,50,16.60
2014,06,18,16,51,16.50
2014,06,18,16,52,16.40
2014,06,18,16,53,16.30
2014,06,18,16,54,16.20
2014,06,18,16,55,16.10
2014,06,18,16,56,16.10
2014,06,18,16,57,15.90
2014,06,18,16,58,15.80
2014,06,18,16,59,15.70
2014,06,18,17,00,15.70
2014,06,18,17,01,15.60
2014,06,18,17,02,15.60
2014,06,18,17,03,15.60
2014,06,18,17,04,15.60
2014,06,18,17,05,15.60
2014,06,18,17,06,15.50
2014,06,18,17,07,15.50
2014,06,18,17,08,15.50
2014,06,18,17,09,15.50
2014,06,18,17,10,15.40
2014,06,18,17,11,15.30
2014,06,18,17,12,15.30
2014,06,18,17,13,15.30
2014,06,18,17,14,15.40
2014,06,18,17,15,15.40
2014,06,18,17,16,15.40
2014,06,18,17,17,15.50
2014,06,18,17,18,15.50
2014,06,18,17,19,15.50
2014,06,18,17,20,15.50
2014,06,18,17,21,15.50
2014,06,18,17,22,15.50
2014,06,18,17,23,15.50
2014,06,18,17,24,15.60
2014,06,18,17,25,15.60
2014,06,18,17,26,15.60
2014,06,18,17,27,15.50